Tracking 19192 objects as of 19-Jun-2018
HD Live streaming from Space Station
objects crossing your sky now

FENGYUN 1C DEB

Track FENGYUN 1C DEB now!
10-day predictions


NORAD ID: 31882
Int'l Code: 1999-025CKH
Perigee: 847.4 km
Apogee: 903.7 km
Inclination: 98.9 °
Period: 102.3 minutes
Semi major axis: 7246 km
RCS: 0.0103 m2 (small)
Launch date: May 10, 1999
Source: People's Republic of China (PRC)
Launch site: Taiyaun Space Center, China (TSC)

Note: This is SATELLITE DEBRIS
aabbcc
Your satellite tracking list
Your tracking list is empty




NASA's NSSDC Master Catalog

Two Line Element Set (TLE):
1 31882U 99025CKH 18142.98930032  .00000247  00000-0  17170-3 0  9999
2 31882  98.8908  63.5106 0038815  69.9050 290.7269 14.07355036563442
Source of the keplerian elements: AFSPC